Погода в Кизилюрте

Россия / Республика Дагестан     43°12′16″N   46°52′00″E
темп.,
°C
ветер,
м/с
пор.,
м/с
влажн.,
%
обл.,
%
осадки,
мм/ч
давл.,
гПа
погр.,
м
2 марта, вт
вт200:00+2ююз2277100 0.0 102823
03:00+1зюз2379100 0.0 102827
06:00+1з228152 0.0 102822
09:00+5юв016129 0.0 1029309
12:00+8ссв12490 0.0 10271107
15:00+9с12430 0.0 10251463
18:00+7св115525 0.0 102525
21:00+5ю116617 0.0 102522
3 марта, ср
ср300:00+4юз12680 0.0 102322
03:00+2с12760 0.0 102122
06:00+1юз11800 0.0 102022
09:00+5всв246617 0.0 1019343
12:00+7св346390 0.0 1018943
15:00+6ссз226495 0.1 1017780
18:00+5юз4773100 0.0 1019275
21:00+3з61193100 1.9 1023654
4 марта, чт
чт400:00+2з81392100 1.3 1024895
03:00+2з81375100 1.4 1026882
06:00+1з6117378 0.0 1027563
09:00+3зсз685750 0.0 1028997
12:00+6сз44430 0.0 10271066
15:00+8всв22400 0.0 10251186
18:00+5в47580 0.0 1025198
21:00+3вюв23720 0.0 102562
5 марта, пт
пт500:00+1в01780 0.0 102322
03:00+1зсз12790 0.0 102222
06:000з22785 0.0 102122
09:00+5зсз23583 0.0 1021321
12:00+9с11390 0.0 1019773
15:00+10в21330 0.0 1019921
18:00+7вюв35700 0.0 1020116
21:00+5вюв23750 0.0 102145
6 марта, сб
сб600:00+4юв12720 0.0 102122
03:00+4вюв12700 0.0 102022
06:00+2ссз01720 0.0 101922
09:00+8сз22450 0.0 1018184
12:00+13ссв11320 0.0 1016447
15:00+15св22290 0.0 1014675
18:00+9в4567100 0.0 1014104
21:00+9юв2362100 0.0 101334